Location: Eastchurch
(51.4000°N, 0.8667°E)
Time: 07:05:10
(UTC+00:00)

Cosmos 1943 - Pass Details

Date: 19 January 2026
Orbit: 830 x 850 km, 71.0° (Epoch: 18 February)

Event Time Altitude Azimuth Distance (km) Brightness Sun altitude
Rises 17:23:31 0° 223° (SW) 3,377 7.6 -9.1°
Reaches altitude 10° 17:26:00 10° 228° (SW) 2,449 6.9 -9.5°
Maximum altitude 17:31:31 56° 306° (NW) 999 3.8 -10.3°
Drops below altitude 10° 17:37:07 10° 25° (NNE) 2,477 5.2 -11.1°
Enters shadow 17:38:26 - 28° (NNE) 2,966 5.6 -11.3°
